Content
SEND FEEDBACK

Daily
Averages
Monthly
Summary
United States of America

DIBOLL, TEXAS


Home > North America > United States > Texas
Elevation: 80 meters     Latitude: 31 14N     Longitude: 094 45W

WEATHER
 
SELECT A DAY
Number of Records: 213,225;   Date Range: 1/1/95 - 9/16/14
 
SHARE

PRINT THIS DATA

[ ← Previous Day ]
WEATHER ALMANAC - 31 JANUARY, 2013
[ Next Day → ]
[ °F ]   °C
Weather ElementAverageHighLow
Temperature7.9 °C18.3 °C (2:53 pm)-1.1 °C (6:53 am)
Dewpoint-1.9 °C1.1 °C (7:53 pm)-6.1 °C (2:53 pm)
Humidity56.7 %86 % (4:53 am)19 % (2:53 pm)
Barometer1024.4 hPa1026.1 hPa (9:53 am)1022.4 hPa (4:53 am)
Wind Speed7.7 km/h18.5 km/h (10:53 am)
Wind Gust29.6 km/h (2:53 pm)
Weather ElementAverage
Visibility16.1 km
Wind DirectionSE (135 °)

Weather ElementTotal
Precipitation---
Heating Degree Days9.8 (Base 18.3)
Averaged from 24 records on 31 January, 2013
WEATHER CONDITIONS BREAKOUT
WIND DIRECTION BREAKOUT
WEATHER BY HOUR - 31 JANUARY, 2013
[ °F ]   °C
Local TimeTemperatureDewpointHumidityBarometerVisibilityWind DirectionWind SpeedGust SpeedPrecipitationEventsConditions
1:53 AM1.1 °C-2.2 °C79 %1023.4 hPa16.1 kmCalmClear
2:53 AM1.1 °C-2.8 °C75 %1022.7 hPa16.1 kmCalmClear
3:53 AM0 °C-2.8 °C82 %1022.7 hPa16.1 kmCalmClear
4:53 AM-1 °C-3 °C86 %1022.4 hPa16.1 kmCalmClear
5:53 AM-0.6 °C-3.3 °C82 %1023 hPa16.1 kmCalmClear
6:53 AM-1.1 °C-3.3 °C85 %1024 hPa16.1 kmCalmClear
7:53 AM0 °C-2.2 °C85 %1024.7 hPa16.1 kmCalmClear
8:32 AM3 °C-1 °C75 %1025.1 hPa16.1 kmSE (140°)5.6 km/hScattered Clouds
8:53 AM6.1 °C0.6 °C68 %1025.4 hPa16.1 kmSSW (210°)7.4 km/hMostly Cloudy
9:02 AM7 °C1 °C66 %1025.4 hPa16.1 kmSSW (200°)7.4 km/hPartly Cloudy
9:53 AM10.6 °C0 °C48 %1026.1 hPa16.1 kmSW (220°)13 km/h27.8 km/hClear
10:53 AM14.4 °C-2.8 °C31 %1025.7 hPa16.1 kmSSW (210°)18.5 km/h27.8 km/hClear
11:53 AM16.1 °C-4.4 °C24 %1025.1 hPa16.1 kmWSW (240°)16.7 km/hClear
12:53 PM17.2 °C-4.4 °C23 %1024.4 hPa16.1 kmWest (260°)16.7 km/hClear
2:53 PM18.3 °C-6.1 °C19 %1023.4 hPa16.1 kmSW (220°)18.5 km/h29.6 km/hClear
3:53 PM18.3 °C-4.4 °C21 %1022.4 hPa16.1 kmSW (230°)16.7 km/hClear
4:53 PM17.8 °C-3.9 °C23 %1023 hPa16.1 kmSW (220°)13 km/hClear
5:53 PM15 °C-4.4 °C26 %1023 hPa16.1 kmSSW (200°)9.3 km/hClear
6:53 PM10 °C-0.6 °C48 %1023 hPa16.1 kmSSE (160°)5.6 km/hClear
7:53 PM7.8 °C1.1 °C63 %1024.4 hPa16.1 kmEast (80°)5.6 km/hClear
8:53 PM6.1 °C0.6 °C68 %1025.4 hPa16.1 kmSSE (160°)11.1 km/hClear
9:53 PM7.8 °C0 °C58 %1025.1 hPa16.1 kmSSE (150°)7.4 km/hClear
10:53 PM8 °C1 °C62 %1025.7 hPa16.1 kmSouth (170°)5.6 km/hClear
11:53 PM7.8 °C1.1 °C63 %1025.7 hPa16.1 kmSouth (170°)5.6 km/hClear
Hourly data recorded from KLFK, located 0 kilometers away from Diboll, Texas







STORIES FROM OUR PARTNERS